Location: B�hl
(48.6968°N, 8.1352°E)
Time: 03:51:48
(UTC+00:00)

Lacrosse 4 Rocket - Pass Details

Date: 08 March 2021
Orbit: 537 x 620 km, 68.0° (Epoch: 17 April)

Event Time Altitude Azimuth Distance (km) Brightness Sun altitude
Rises 19:33:16 0° 240° (WSW) 2,848 5.5 -22.1°
Reaches altitude 10° 19:35:41 10° 250° (WSW) 1,960 4.8 -22.5°
Maximum altitude 19:39:40 32° 314° (NW) 1,064 3.3 -23.1°
Drops below altitude 10° 19:43:44 10° 18° (NNE) 1,995 4.2 -23.7°
Enters shadow 19:45:42 - 27° (NNE) 2,714 4.8 -24.0°
